[[{"header":{"parameterUnit":"m.s-1","parameterCategory":1,"la1":30.2992,"la2":30.254,"lo1":-89.0895,"lo2":-89.0443,"dy":0.0025,"dx":0.0025,"nx":19,"ny":19,"refTime":"2026-05-13T03:00:00:Z","depth":0,"parameterNumber":2,"parameterNumberName":"U-component_of_WINDS"},"data":[0,0,0,1.3349,1.3349,1.3379,1.3379,1.3418,1.3418,0,0,0,0,0,0,0,0,0,0,0,1.334,1.334,1.3349,1.3349,1.3379,1.3379,1.3418,1.3418,0,0,0,0,0,0,0,0,0,0,0,1.334,1.334,1.334,1.335,1.3379,1.3379,1.3418,1.3395,0,0,0,0,0,0,0,0,0,0,1.3366,1.3357,1.334,1.334,1.335,1.3379,1.3379,1.3394,1.3397,1.3405,0,1.3411,0,1.3415,1.3421,1.3421,0,0,0,1.335,1.3355,1.3364,1.334,1.335,1.3379,1.3366,1.3396,1.3398,1.3408,1.3411,1.3413,1.3416,1.3421,1.3421,1.3465,1.3465,0,0,1.3348,1.3345,1.3362,1.3365,1.336,1.3365,1.3367,1.3397,1.3401,1.3412,1.3414,1.3416,1.3421,1.3422,1.3465,1.3465,0,0,0,1.3343,1.3344,1.3351,1.3364,1.3369,1.3366,1.3368,1.34,1.3403,1.3414,1.3417,1.3422,1.3422,1.3464,1.3465,1.347,0,0,0,1.3342,1.3341,1.3351,1.3349,1.3369,1.3385,1.337,1.34,1.3404,1.3417,1.3422,1.3422,1.3464,1.3464,1.347,1.3473,0,0,0,1.3338,1.334,1.3345,1.3349,1.3361,1.3384,1.3389,1.3401,1.3406,1.3421,1.3423,1.3464,1.3464,1.3469,1.3472,1.3484,0,0,0,1.3332,1.3349,1.3345,1.3365,1.3361,1.3387,1.3389,1.3409,1.3423,1.3422,1.3464,1.3465,1.3469,1.3472,1.3483,1.3492,1.3496,0,0,1.3352,1.3351,1.3363,1.336,1.3387,1.3383,1.3411,1.3427,1.3432,1.3454,1.3455,1.347,1.3472,1.3484,1.3518,1.3521,0,0,0,1.3369,1.3377,1.3385,1.3398,1.341,1.3422,1.3434,1.344,1.3459,1.3442,1.3477,1.3479,1.3486,1.349,1.3493,1.3499,1.3467,1.3467,1.3467,1.3391,1.3396,1.3417,1.3426,1.3438,1.3451,1.3462,1.3473,1.3474,1.3483,1.3489,1.3509,1.3514,1.3516,1.3522,1.3495,1.3495,1.3495,1.3495,1.342,1.3433,1.3435,1.3455,1.3461,1.3479,1.3493,1.3493,1.3511,1.3505,1.3511,1.3503,1.3519,1.3525,1.3495,1.3495,1.3495,1.3495,1.3495,1.3435,1.3442,1.3449,1.3469,1.3484,1.3493,1.351,1.3515,1.352,1.3526,1.3533,1.3533,1.3534,1.3529,1.3529,1.3529,1.3529,1.3529,1.3529,1.3447,1.3455,1.3468,1.3484,1.3493,1.3506,1.352,1.353,1.3542,1.3544,1.3544,1.3545,1.352,1.3513,1.3531,1.353,1.353,1.353,1.353,1.3473,1.3468,1.3489,1.3498,1.3517,1.3532,1.3539,1.3558,1.3567,1.3576,1.3576,1.3556,1.3556,1.3554,1.3548,1.3574,1.3574,1.3574,1.3574,1.3485,1.3486,1.3508,1.3523,1.3539,1.3547,1.3571,1.3583,1.3594,1.36,1.3597,1.3591,1.3589,1.359,1.3587,1.3582,1.3616,1.3616,1.3616,1.3502,1.3504,1.3523,1.3534,1.3549,1.3563,1.3586,1.3604,1.3616,1.3618,1.3605,1.3603,1.3592,1.3589,1.3589,1.3585,1.3575,0,0]},{"header":{"parameterUnit":"m.s-1","parameterCategory":1,"la1":30.2992,"la2":30.254,"lo1":-89.0895,"lo2":-89.0443,"dy":0.0025,"dx":0.0025,"nx":19,"ny":19,"refTime":"2026-05-13T03:00:00:Z","depth":0,"parameterNumber":3,"parameterNumberName":"V-component_of_WINDS"},"data":[0,0,0,-1.3356,-1.336,-1.3527,-1.3527,-1.3733,-1.3734,0,0,0,0,0,0,0,0,0,0,0,-1.3299,-1.3301,-1.3356,-1.336,-1.3527,-1.3528,-1.3732,-1.3734,0,0,0,0,0,0,0,0,0,0,0,-1.3299,-1.33,-1.3302,-1.336,-1.3527,-1.3528,-1.3732,-1.3609,0,0,0,0,0,0,0,0,0,0,-1.3449,-1.3389,-1.33,-1.3302,-1.3361,-1.3526,-1.3528,-1.3604,-1.3617,-1.3653,0,-1.368,0,-1.371,-1.3747,-1.3748,0,0,0,-1.3366,-1.3377,-1.3429,-1.3302,-1.3363,-1.3526,-1.3453,-1.3611,-1.3626,-1.367,-1.3683,-1.3691,-1.3714,-1.3748,-1.3749,-1.3931,-1.3931,0,0,-1.3357,-1.3326,-1.3418,-1.3438,-1.341,-1.3448,-1.3458,-1.362,-1.3634,-1.3684,-1.3696,-1.3717,-1.375,-1.3751,-1.393,-1.3931,0,0,0,-1.3326,-1.3319,-1.3367,-1.343,-1.346,-1.3452,-1.3465,-1.3626,-1.3644,-1.3699,-1.372,-1.3751,-1.3753,-1.393,-1.393,-1.3928,0,0,0,-1.3321,-1.3302,-1.3363,-1.3346,-1.3457,-1.3545,-1.3466,-1.3633,-1.3653,-1.3718,-1.3751,-1.3755,-1.3929,-1.393,-1.3927,-1.3932,0,0,0,-1.3291,-1.3298,-1.332,-1.3344,-1.3414,-1.3543,-1.3571,-1.3638,-1.3665,-1.3748,-1.3756,-1.3929,-1.393,-1.3926,-1.3931,-1.3971,0,0,0,-1.3251,-1.3316,-1.3319,-1.34,-1.3412,-1.354,-1.357,-1.3667,-1.3738,-1.3752,-1.3929,-1.393,-1.3925,-1.393,-1.397,-1.4,-1.4009,0,0,-1.3316,-1.3322,-1.3372,-1.338,-1.3499,-1.3517,-1.3636,-1.3731,-1.3768,-1.3875,-1.388,-1.3927,-1.3931,-1.3971,-1.4073,-1.408,0,0,0,-1.3383,-1.3418,-1.3456,-1.3521,-1.3594,-1.3658,-1.3738,-1.3773,-1.3865,-1.3816,-1.3954,-1.3957,-1.3982,-1.3998,-1.4004,-1.4028,-1.3936,-1.3936,-1.3936,-1.343,-1.3473,-1.3559,-1.3622,-1.3685,-1.3767,-1.3823,-1.3885,-1.391,-1.3942,-1.3974,-1.403,-1.4048,-1.4053,-1.4077,-1.3993,-1.3993,-1.3993,-1.3993,-1.3529,-1.3586,-1.3618,-1.3713,-1.3759,-1.384,-1.3922,-1.3937,-1.402,-1.401,-1.4034,-1.4018,-1.4059,-1.4083,-1.3994,-1.3994,-1.3994,-1.3994,-1.3994,-1.3565,-1.36,-1.3641,-1.374,-1.3813,-1.3876,-1.3954,-1.3993,-1.4031,-1.4055,-1.4094,-1.4094,-1.4099,-1.4071,-1.4071,-1.4071,-1.4071,-1.4071,-1.4071,-1.3585,-1.3632,-1.3692,-1.3776,-1.3823,-1.3891,-1.3975,-1.4024,-1.4088,-1.4111,-1.4112,-1.4134,-1.4055,-1.4034,-1.4075,-1.4074,-1.4074,-1.4073,-1.4073,-1.367,-1.3657,-1.375,-1.3797,-1.39,-1.397,-1.4019,-1.4115,-1.4161,-1.4199,-1.4218,-1.4152,-1.4162,-1.4158,-1.4141,-1.4207,-1.4207,-1.4207,-1.4207,-1.37,-1.3709,-1.3813,-1.3887,-1.3964,-1.4018,-1.4124,-1.419,-1.4258,-1.4289,-1.4286,-1.4267,-1.426,-1.4275,-1.4268,-1.4252,-1.4346,-1.4346,-1.4346,-1.3755,-1.3773,-1.3854,-1.3918,-1.4001,-1.4072,-1.4173,-1.4259,-1.4333,-1.4352,-1.4315,-1.431,-1.428,-1.4267,-1.4285,-1.4273,-1.4247,0,0]}]]